| time (UTC) | temp F | wind direction | speed MPH | gust MPH | rain 1hr in | rain 24hr in | rain mn in | humidity % | barometer mb |
| 20260902195816 | 70 | 176 | 0.0 | 0.0 | 0.00 | 0.09 | 0.01 | 81 | 1018.5 |
| 20260902194328 | 70 | 176 | 0.0 | 0.0 | 0.00 | 0.10 | 0.01 | 82 | 1018.7 |
| 20260902193322 | 71 | 176 | 0.0 | 0.0 | 0.00 | 0.12 | 0.01 | 79 | 1018.8 |
| 20260902192320 | 71 | 176 | 0.0 | 0.0 | 0.00 | 0.14 | 0.01 | 79 | 1018.7 |
| 20260902191322 | 71 | 176 | 0.0 | 0.0 | 0.00 | 0.14 | 0.01 | 78 | 1019.0 |
| 20260902190323 | 71 | 176 | 0.0 | 1.0 | 0.00 | 0.14 | 0.01 | 75 | 1019.0 |
| 20260902185321 | 72 | 176 | 0.0 | 3.0 | 0.00 | 0.14 | 0.01 | 75 | 1018.7 |
| 20260902184320 | 72 | 176 | 0.0 | 3.0 | 0.00 | 0.15 | 0.01 | 75 | 1018.9 |
| 20260902183322 | 72 | 176 | 0.0 | 3.0 | 0.00 | 0.15 | 0.01 | 76 | 1018.6 |
| 20260902182322 | 72 | 176 | 0.0 | 0.0 | 0.00 | 0.15 | 0.01 | 79 | 1018.8 |
| 20260902181322 | 72 | 176 | 0.0 | 5.0 | 0.00 | 0.15 | 0.01 | 76 | 1018.7 |
| 20260902180315 | 71 | 42 | 0.0 | 0.0 | 0.00 | 0.16 | 0.01 | 81 | 1018.8 |
| 20260902175801 | 71 | 42 | 0.0 | 0.0 | 0.00 | 0.16 | 0.01 | 80 | 1019.0 |
| 20260902174315 | 71 | 42 | 0.0 | 2.0 | 0.00 | 0.16 | 0.01 | 79 | 1019.2 |
| 20260902173315 | 70 | 48 | 0.0 | 1.0 | 0.00 | 0.16 | 0.01 | 80 | 1019.4 |
| 20260902172802 | 70 | 48 | 0.0 | 4.0 | 0.00 | 0.16 | 0.01 | 78 | 1019.3 |
| 20260902171315 | 70 | 60 | 0.0 | 3.0 | 0.00 | 0.16 | 0.01 | 81 | 1019.3 |
| 20260902170314 | 70 | 58 | 0.0 | 4.0 | 0.00 | 0.16 | 0.01 | 82 | 1019.3 |
| 20260902165315 | 69 | 53 | 0.0 | 3.0 | 0.00 | 0.16 | 0.01 | 84 | 1019.3 |
| 20260902164315 | 69 | 52 | 0.0 | 3.0 | 0.00 | 0.16 | 0.01 | 86 | 1019.2 |
| 20260902163751 | 69 | 53 | 1.0 | 4.0 | 0.00 | 0.16 | 0.01 | 85 | 1019.2 |
| 20260902162310 | 68 | 49 | 0.0 | 3.0 | 0.00 | 0.16 | 0.01 | 87 | 1019.1 |
| 20260902161308 | 68 | 48 | 1.0 | 4.0 | 0.00 | 0.16 | 0.01 | 87 | 1019.3 |
| 20260902160309 | 68 | 45 | 0.0 | 4.0 | 0.00 | 0.16 | 0.01 | 87 | 1019.5 |
| 20260902155308 | 67 | 39 | 0.0 | 1.0 | 0.00 | 0.16 | 0.01 | 89 | 1019.4 |
| 20260902154308 | 67 | 39 | 0.0 | 2.0 | 0.00 | 0.16 | 0.01 | 87 | 1019.7 |
| 20260902153744 | 67 | 39 | 0.0 | 1.0 | 0.00 | 0.16 | 0.01 | 89 | 1019.8 |
| 20260902152308 | 66 | 39 | 0.0 | 1.0 | 0.00 | 0.16 | 0.01 | 89 | 1020.0 |
| 20260902151309 | 66 | 36 | 0.0 | 3.0 | 0.00 | 0.16 | 0.01 | 89 | 1020.1 |
| 20260902150304 | 66 | 67 | 0.0 | 3.0 | 0.00 | 0.16 | 0.01 | 91 | 1020.1 |
| 20260902145305 | 65 | 67 | 1.0 | 3.0 | 0.00 | 0.16 | 0.01 | 90 | 1020.1 |
| 20260902145225 | 65 | 44 | 1.0 | 4.0 | 0.00 | 0.16 | 0.01 | 92 | 1019.9 |
| 20260902143742 | 65 | 65 | 1.0 | 3.0 | 0.00 | 0.16 | 0.01 | 93 | 1019.9 |
| 20260902142746 | 65 | 67 | 1.0 | 3.0 | 0.00 | 0.16 | 0.01 | 93 | 1020.0 |
| 20260902141302 | 64 | 42 | 0.0 | 3.0 | 0.00 | 0.16 | 0.01 | 95 | 1020.0 |
| 20260902140302 | 64 | 41 | 1.0 | 4.0 | 0.00 | 0.16 | 0.01 | 95 | 1019.8 |
| 20260902135306 | 64 | 69 | 1.0 | 4.0 | 0.00 | 0.16 | 0.01 | 95 | 1019.7 |
| 20260902134304 | 63 | 53 | 1.0 | 4.0 | 0.00 | 0.16 | 0.01 | 96 | 1019.8 |
| 20260902134223 | 63 | 46 | 1.0 | 3.0 | 0.00 | 0.16 | 0.01 | 96 | 1019.8 |
| 20260902132256 | 62 | 40 | 1.0 | 3.0 | 0.00 | 0.16 | 0.01 | 96 | 1019.6 |
| 20260902131256 | 62 | 32 | 1.0 | 3.0 | 0.00 | 0.16 | 0.01 | 96 | 1019.6 |
| 20260902130255 | 62 | 32 | 1.0 | 3.0 | 0.00 | 0.16 | 0.01 | 96 | 1019.6 |
| 20260902125255 | 62 | 32 | 0.0 | 2.0 | 0.00 | 0.17 | 0.01 | 96 | 1019.5 |
| 20260902124256 | 62 | 31 | 1.0 | 4.0 | 0.00 | 0.18 | 0.01 | 96 | 1019.4 |
| 20260902123256 | 62 | 34 | 0.0 | 3.0 | 0.00 | 0.19 | 0.01 | 96 | 1019.5 |
| 20260902122256 | 62 | 34 | 1.0 | 4.0 | 0.00 | 0.20 | 0.01 | 96 | 1019.5 |
| 20260902121741 | 62 | 34 | 1.0 | 3.0 | 0.00 | 0.23 | 0.01 | 96 | 1019.7 |
| 20260902120252 | 61 | 86 | 1.0 | 3.0 | 0.00 | 0.24 | 0.01 | 96 | 1019.7 |
| 20260902115250 | 61 | 45 | 0.0 | 1.0 | 0.00 | 0.24 | 0.01 | 96 | 1019.7 |
| 20260902114250 | 61 | 45 | 0.0 | 2.0 | 0.00 | 0.25 | 0.01 | 96 | 1019.7 |
| 20260902113251 | 61 | 45 | 0.0 | 3.0 | 0.00 | 0.25 | 0.01 | 96 | 1019.8 |
| 20260902112247 | 61 | 43 | 0.0 | 2.0 | 0.00 | 0.25 | 0.01 | 96 | 1019.8 |
| 20260902111728 | 61 | 43 | 1.0 | 2.0 | 0.00 | 0.25 | 0.01 | 96 | 1019.7 |
| 20260902110247 | 61 | 43 | 0.0 | 2.0 | 0.00 | 0.25 | 0.01 | 96 | 1019.5 |
| 20260902105728 | 61 | 36 | 0.0 | 2.0 | 0.00 | 0.25 | 0.01 | 96 | 1019.5 |
| 20260902104247 | 61 | 36 | 1.0 | 3.0 | 0.00 | 0.25 | 0.01 | 96 | 1019.3 |
| 20260902103245 | 61 | 36 | 0.0 | 2.0 | 0.00 | 0.25 | 0.01 | 96 | 1019.5 |
| 20260902102245 | 61 | 36 | 0.0 | 2.0 | 0.00 | 0.25 | 0.01 | 96 | 1019.4 |
| 20260902101247 | 61 | 36 | 0.0 | 2.0 | 0.00 | 0.25 | 0.01 | 96 | 1019.2 |
| 20260902100245 | 61 | 36 | 1.0 | 3.0 | 0.00 | 0.25 | 0.01 | 96 | 1019.2 |
| 20260902095246 | 61 | 34 | 0.0 | 3.0 | 0.00 | 0.25 | 0.01 | 96 | 1019.1 |
| 20260902094247 | 61 | 35 | 1.0 | 3.0 | 0.00 | 0.25 | 0.01 | 96 | 1018.9 |
| 20260902093246 | 61 | 34 | 1.0 | 3.0 | 0.00 | 0.25 | 0.01 | 96 | 1018.7 |
| 20260902092241 | 61 | 55 | 1.0 | 3.0 | 0.00 | 0.25 | 0.01 | 96 | 1018.7 |
| 20260902091239 | 61 | 53 | 0.0 | 3.0 | 0.00 | 0.25 | 0.01 | 96 | 1018.5 |
| 20260902090726 | 61 | 44 | 0.0 | 2.0 | 0.00 | 0.25 | 0.01 | 96 | 1018.4 |
| 20260902085240 | 61 | 44 | 0.0 | 2.0 | 0.00 | 0.25 | 0.01 | 96 | 1018.4 |
| 20260902084239 | 61 | 40 | 0.0 | 2.0 | 0.00 | 0.25 | 0.01 | 96 | 1018.4 |
| 20260902083240 | 61 | 40 | 0.0 | 2.0 | 0.00 | 0.25 | 0.01 | 96 | 1018.5 |
| 20260902082240 | 61 | 40 | 0.0 | 3.0 | 0.00 | 0.25 | 0.01 | 96 | 1018.4 |
| 20260902081712 | 61 | 40 | 0.0 | 3.0 | 0.00 | 0.25 | 0.01 | 96 | 1018.2 |
| 20260902080238 | 62 | 40 | 0.0 | 3.0 | 0.00 | 0.25 | 0.01 | 96 | 1018.3 |
| 20260902075233 | 62 | 40 | 0.0 | 1.0 | 0.00 | 0.25 | 0.01 | 96 | 1018.2 |
| 20260902074232 | 62 | 40 | 0.0 | 2.0 | 0.01 | 0.25 | 0.01 | 96 | 1018.1 |
| 20260902073709 | 62 | 40 | 1.0 | 2.0 | 0.01 | 0.25 | 0.01 | 96 | 1018.2 |
| 20260902072234 | 62 | 40 | 1.0 | 3.0 | 0.01 | 0.25 | 0.01 | 96 | 1018.1 |
| 20260902071231 | 62 | 49 | 0.0 | 2.0 | 0.01 | 0.25 | 0.01 | 96 | 1018.4 |
| 20260902070230 | 62 | 49 | 0.0 | 2.0 | 0.01 | 0.25 | 0.01 | 96 | 1018.1 |
| 20260902065233 | 62 | 46 | 0.0 | 2.0 | 0.01 | 0.25 | 0.01 | 96 | 1018.4 |
| 20260902064231 | 62 | 46 | 0.0 | 0.0 | 0.00 | 0.24 | 0.00 | 96 | 1018.4 |
| 20260902063234 | 62 | 46 | 0.0 | 0.0 | 0.00 | 0.24 | 0.00 | 96 | 1018.2 |
| 20260902062226 | 62 | 46 | 0.0 | 0.0 | 0.00 | 0.24 | 0.00 | 96 | 1018.2 |
| 20260902061706 | 62 | 46 | 0.0 | 0.0 | 0.00 | 0.24 | 0.00 | 96 | 1018.2 |
| 20260902060225 | 62 | 46 | 0.0 | 0.0 | 0.00 | 0.24 | 0.00 | 96 | 1018.2 |
| 20260902055712 | 62 | 46 | 0.0 | 0.0 | 0.00 | 0.24 | 0.00 | 96 | 1018.3 |
| 20260902054225 | 62 | 46 | 0.0 | 0.0 | 0.00 | 0.24 | 0.00 | 96 | 1018.4 |
| 20260902053226 | 62 | 46 | 0.0 | 0.0 | 0.00 | 0.24 | 0.00 | 96 | 1018.3 |
| 20260902052226 | 62 | 46 | 0.0 | 0.0 | 0.00 | 0.24 | 0.00 | 96 | 1018.0 |
| 20260902051712 | 62 | 46 | 0.0 | 0.0 | 0.00 | 0.24 | 0.00 | 96 | 1018.1 |
| 20260902050226 | 62 | 46 | 0.0 | 2.0 | 0.00 | 0.24 | 0.00 | 96 | 1018.1 |
| 20260902045223 | 62 | 46 | 0.0 | 1.0 | 0.00 | 0.24 | 0.00 | 96 | 1017.9 |
| 20260902044704 | 62 | 46 | 0.0 | 2.0 | 0.00 | 0.24 | 0.00 | 96 | 1017.8 |
| 20260902043223 | 62 | 46 | 0.0 | 2.0 | 0.00 | 0.24 | 0.00 | 96 | 1017.8 |
| 20260902042223 | 62 | 46 | 0.0 | 2.0 | 0.00 | 0.24 | 0.00 | 96 | 1017.8 |
| 20260902041224 | 62 | 46 | 0.0 | 2.0 | 0.00 | 0.24 | 0.00 | 96 | 1017.7 |
| 20260902040223 | 62 | 46 | 0.0 | 2.0 | 0.00 | 0.24 | 0.00 | 96 | 1017.5 |
| 20260902035226 | 62 | 46 | 0.0 | 1.0 | 0.00 | 0.24 | 0.24 | 96 | 1017.7 |
| 20260902034221 | 62 | 46 | 0.0 | 1.0 | 0.00 | 0.24 | 0.24 | 96 | 1017.8 |
| 20260902033221 | 62 | 46 | 0.0 | 1.0 | 0.00 | 0.24 | 0.24 | 96 | 1017.8 |
| 20260902032222 | 62 | 46 | 0.0 | 0.0 | 0.00 | 0.24 | 0.24 | 96 | 1017.6 |
| 20260902031221 | 61 | 46 | 0.0 | 0.0 | 0.00 | 0.24 | 0.24 | 96 | 1017.4 |
| 20260902030222 | 61 | 46 | 0.0 | 2.0 | 0.00 | 0.24 | 0.24 | 96 | 1016.9 |
| 20260902025223 | 61 | 46 | 0.0 | 3.0 | 0.00 | 0.24 | 0.24 | 96 | 1017.0 |
| 20260902024653 | 61 | 62 | 1.0 | 3.0 | 0.00 | 0.24 | 0.24 | 96 | 1017.0 |
| 20260902023221 | 61 | 43 | 0.0 | 2.0 | 0.00 | 0.24 | 0.24 | 96 | 1017.0 |
| 20260902022222 | 61 | 42 | 1.0 | 3.0 | 0.00 | 0.24 | 0.24 | 96 | 1017.1 |
| 20260902021223 | 61 | 49 | 1.0 | 3.0 | 0.00 | 0.24 | 0.24 | 96 | 1017.1 |
| 20260902020216 | 61 | 49 | 0.0 | 1.0 | 0.00 | 0.24 | 0.24 | 96 | 1017.1 |
| 20260902015217 | 61 | 49 | 0.0 | 3.0 | 0.00 | 0.24 | 0.24 | 96 | 1017.1 |
| 20260902014216 | 61 | 45 | 0.0 | 2.0 | 0.00 | 0.24 | 0.24 | 96 | 1017.0 |
| 20260902013216 | 61 | 49 | 0.0 | 2.0 | 0.00 | 0.24 | 0.24 | 96 | 1016.8 |
| 20260902012216 | 61 | 49 | 0.0 | 2.0 | 0.00 | 0.24 | 0.24 | 96 | 1016.8 |
| 20260902011217 | 61 | 48 | 0.0 | 2.0 | 0.00 | 0.24 | 0.24 | 96 | 1016.8 |
| 20260902010216 | 62 | 44 | 0.0 | 2.0 | 0.00 | 0.24 | 0.24 | 96 | 1016.6 |
| 20260902005216 | 62 | 44 | 0.0 | 1.0 | 0.00 | 0.24 | 0.24 | 96 | 1016.4 |
| 20260902004216 | 62 | 44 | 0.0 | 1.0 | 0.00 | 0.24 | 0.24 | 96 | 1016.5 |
| 20260902003653 | 62 | 44 | 0.0 | 0.0 | 0.00 | 0.24 | 0.24 | 96 | 1016.4 |
| 20260902002211 | 62 | 44 | 0.0 | 0.0 | 0.00 | 0.24 | 0.24 | 96 | 1016.3 |
| 20260902001210 | 62 | 44 | 0.0 | 1.0 | 0.00 | 0.24 | 0.24 | 96 | 1016.1 |
| 20260902000211 | 62 | 44 | 0.0 | 0.0 | 0.00 | 0.24 | 0.24 | 96 | 1015.7 |
| 20260901235209 | 62 | 44 | 0.0 | 0.0 | 0.00 | 0.24 | 0.24 | 96 | 1016.1 |
| 20260901234209 | 62 | 44 | 0.0 | 2.0 | 0.00 | 0.24 | 0.24 | 96 | 1016.3 |
| 20260901233209 | 62 | 44 | 0.0 | 2.0 | 0.00 | 0.24 | 0.24 | 96 | 1016.4 |
| 20260901232643 | 62 | 44 | 0.0 | 2.0 | 0.01 | 0.24 | 0.24 | 96 | 1016.3 |
| 20260901231210 | 62 | 49 | 0.0 | 1.0 | 0.01 | 0.24 | 0.24 | 96 | 1016.3 |
| 20260901230647 | 62 | 51 | 0.0 | 3.0 | 0.01 | 0.24 | 0.24 | 96 | 1015.9 |
| 20260901225203 | 62 | 49 | 0.0 | 1.0 | 0.01 | 0.24 | 0.24 | 96 | 1015.9 |
| 20260901224204 | 62 | 49 | 0.0 | 3.0 | 0.02 | 0.24 | 0.24 | 96 | 1015.9 |
| 20260901223645 | 62 | 5 | 0.0 | 1.0 | 0.02 | 0.24 | 0.24 | 96 | 1015.7 |
| 20260901222203 | 62 | 5 | 0.0 | 4.0 | 0.02 | 0.23 | 0.23 | 96 | 1016.0 |
| 20260901222123 | 63 | 28 | 0.0 | 7.0 | 0.03 | 0.23 | 0.23 | 96 | 1015.7 |
| 20260901220204 | 63 | 59 | 1.0 | 4.0 | 0.03 | 0.23 | 0.23 | 96 | 1015.6 |
| 20260901215203 | 63 | 28 | 1.0 | 3.0 | 0.03 | 0.23 | 0.23 | 96 | 1015.5 |
| 20260901214203 | 63 | 38 | 0.0 | 4.0 | 0.03 | 0.22 | 0.22 | 96 | 1015.5 |
| 20260901213204 | 64 | 48 | 0.0 | 3.0 | 0.04 | 0.22 | 0.22 | 96 | 1015.5 |
| 20260901212205 | 64 | 25 | 0.0 | 3.0 | 0.04 | 0.21 | 0.21 | 96 | 1015.2 |
| 20260901211203 | 64 | 32 | 0.0 | 3.0 | 0.04 | 0.20 | 0.20 | 96 | 1015.2 |
| 20260901210643 | 64 | 32 | 1.0 | 3.0 | 0.04 | 0.20 | 0.20 | 95 | 1015.0 |
| 20260901205205 | 64 | 44 | 1.0 | 8.0 | 0.04 | 0.20 | 0.20 | 95 | 1014.9 |
| 20260901204647 | 65 | 66 | 1.0 | 4.0 | 0.04 | 0.19 | 0.19 | 95 | 1014.7 |
| 20260901203202 | 65 | 48 | 2.0 | 6.0 | 0.06 | 0.18 | 0.18 | 95 | 1014.6 |
| 20260901202154 | 66 | 66 | 0.0 | 3.0 | 0.06 | 0.17 | 0.18 | 95 | 1014.5 |
| 20260901201154 | 66 | 49 | 1.0 | 4.0 | 0.05 | 0.16 | 0.16 | 95 | 1014.3 |